NIMBUS 2 DEB

Satellite information

Favourite Embed

Satellite Type and Status

DEBRISIN ORBIT

Key statistics

Satellite NIMBUS 2 DEB at a glance.

Uptime

21604

Days in orbit

Revolutions

≈ 13.6

Per day

Orbit

SSO

Sun Synchronous Orbit

Inclination

100.1

Latest

Satellite identification and parameters

Extended collection of information and parameters for NIMBUS 2 DEB.

Object identification

Identified? True

Debris? True

Object name: NIMBUS 2 DEB

International designator: 1966-040Q

Object number (NORAD): 28202

Object ID (CCSDS): 28202

Country: UNITED STATES OF AMERICA (US)

Current information (Y/N): Y

RCS size: SMALL

Orbital parameters

Period: 105.615 minutes

Inclination: 100.1446 deg

SMA: 7401.326 km

Apoapsis: 1048.694 km

Periapsis: 997.688 km

RAAN: 54.2518 deg

Eccentricy: 0.0034457

Argument of periapsis: 35.9445 deg

Mean anomaly: 143.2253 deg

Mean motion: 13.63447565 rev/day

Mean motion (dot): 0.00001915 rev/day2

B* drag term: 0.0024783 1/REarth

Two-line elements (TLE)

Creation date: July 3, 2025, 5:26 p.m.

Reference frame: TEME

Reference center: EARTH

Epoch: July 3, 2025, 10:09 a.m. UTC

TLE line 0: 0 NIMBUS 2 DEB

TLE line 1: 1 28202U 66040Q 25184.42316119 .00001915 00000-0 24783-2 0 9999

TLE line 2: 2 28202 100.1446 54.2518 0034457 35.9445 143.2253 13.63447565585259

Live tracking on map

Real-time ground track for satellite NIMBUS 2 DEB.

In-orbit conjunctions

A list of the most updated potential collisions computed for object NIMBUS 2 DEB.

Target Orbit TCA Probability of collision Miss distance Type
COSMOS 1383 LEO 2024-07-07 16:05:05 0.0001213108 423.0 (m) PAYLOAD
COSMOS 2016 LEO 2024-06-01 15:36:14 0.0001267657 449.0 (m) PAYLOAD

Associated space launch

Nimbus 2, the second in a series of second-generation meteorological research-and-development satellites, added an additional medium-resolution infrared radiometer (MRIR) compared to Nimbus 1.

NIMBUS 2 DEB was lifted into orbit during the mission ‘Thor SLV-2A Agena B | Nimbus 2’, on board a Thor SLV-2A Agena B space rocket.

The launch took place on May 15, 1966, 7:55 a.m. from Space Launch Complex 2E.

For more information about the launch, click the button.

Launch to space Thor SLV-2A Agena B | Nimbus 2
Thor SLV-2A Agena B | Nimbus 2

Agency: N/A

Status: Launch Successful

Launch date: May 15, 1966, 7:55 a.m. UTC

Rocket: Thor SLV-2A Agena B

Launch pad: Space Launch Complex 2E

Location: Vandenberg SFB, CA, USA

...

Latest news about this satellite

There are no fresh news available about this satellite. Check back as we update our databases every day.


Newsletter sign-up

Weekly statistics, charts and insights to help you stay on top of the space industry.